Wetbulb
73.34 76.88 79.32 79.82 79.63 79.29 78.78 78.36 77.66 77.06 76.73 76.50 76.67 76.43 76.31 76.53 76.89 76.53 76.31 75.99 76.13 76.25 76.36 76.55 76.58 76.56 76.29 75.18 75.01 76.31 76.42 75.75 76.07 75.64 75.50 76.10 75.73 75.27 75.35 74.95 74.37 73.57 74.19
74.76 77.15 79.15 79.47 79.37 79.24 79.38 79.21 78.33 77.28 76.75 76.51 76.65 76.69 76.34 76.72 76.67 76.31 76.27 76.19 76.29 76.63 76.36 76.11 76.31 76.02 75.64 75.15 74.48 75.33 76.21 76.33 76.62 76.43 75.59 75.29 74.59 74.76 76.59 74.84 73.24 73.78 75.51
74.60 76.76 77.73 78.91 79.25 79.19 79.46 79.27 78.34 77.53 76.67 76.62 76.71 76.91 76.54 76.51 76.52 76.09 76.44 76.34 76.57 76.39 76.50 76.36 76.40 76.00 75.83 75.64 75.50 75.64 76.06 75.84 76.74 75.62 75.04 71.34 71.45 75.31 74.01 74.43 74.95 73.76 75.17
74.48 75.33 76.87 78.75 79.09 79.09 79.37 79.23 78.81 77.69 76.58 76.95 76.94 76.84 76.63 76.42 76.23 76.31 76.33 76.52 76.33 76.27 76.67 76.41 76.00 75.84 75.64 75.97 75.79 76.00 75.89 75.64 75.61 75.92 72.87 70.75 71.17 75.07 75.82 75.42 74.98 74.14 74.32
72.72 74.62 76.70 79.10 78.91 78.31 78.73 79.12 78.58 78.09 77.53 77.19 76.96 76.93 76.43 76.44 76.45 76.51 76.31 76.46 76.02 76.24 76.49 76.40 75.78 75.07 76.34 75.83 75.82 75.62 75.54 75.51 74.83 74.87 74.05 68.00 71.33 72.85 75.52 75.80 74.96 74.36 74.73
72.38 74.87 78.05 78.93 78.31 78.09 78.15 78.19 78.36 77.99 78.33 77.80 77.04 76.67 76.45 76.74 76.68 76.69 76.17 76.30 76.13 76.40 76.51 76.03 75.01 75.57 76.10 75.82 75.48 75.32 74.80 74.92 74.57 73.64 69.79 71.72 71.83 75.10 75.01 75.41 75.57 74.37 74.70
73.29 74.97 77.05 78.68 78.78 78.59 78.37 77.85 78.12 78.10 78.02 77.24 77.02 76.51 76.39 76.31 76.93 76.62 76.52 76.52 76.02 76.49 76.52 75.40 75.15 76.21 75.61 75.54 75.49 75.07 75.11 75.04 73.60 72.41 71.13 70.40 72.44 76.17 76.11 75.82 75.18 73.75 74.34
73.78 74.71 75.57 78.07 78.50 77.98 77.65 77.76 77.57 77.56 77.21 77.01 76.65 76.38 76.16 76.02 76.17 76.32 76.73 76.73 76.13 76.42 76.29 76.06 76.39 76.25 76.36 75.95 75.82 75.30 74.61 74.32 74.37 72.42 72.19 70.65 74.17 75.79 75.70 75.58 74.41 74.24 74.99
73.82 74.39 74.91 75.77 76.17 77.34 77.33 77.31 77.11 76.88 76.86 77.27 76.65 76.90 76.80 76.58 76.67 76.46 76.60 76.55 76.19 75.92 76.38 75.70 76.17 76.81 76.47 75.30 75.21 75.23 74.97 75.09 72.85 72.24 72.04 71.64 75.61 76.13 75.70 75.45 74.17 73.50 73.43
70.55 68.67 73.55 74.64 74.10 74.27 74.76 77.95 77.74 77.11 77.08 76.84 76.16 76.19 76.65 76.39 76.36 76.52 76.67 76.82 76.06 76.32 76.46 76.46 75.67 76.40 76.12 75.58 75.31 75.21 75.19 75.50 72.86 72.20 71.60 71.87 75.68 75.30 74.07 75.09 74.95 75.35 74.47
65.71 65.42 68.22 73.59 74.17 74.58 74.51 76.04 77.92 77.05 76.96 76.90 75.89 76.63 76.00 73.22 73.79 75.09 75.75 76.43 76.16 76.37 76.40 76.22 76.05 76.37 76.26 75.88 75.80 75.94 75.57 72.05 71.43 71.57 71.29 75.42 76.01 76.63 75.08 73.99 74.12 73.86 74.77
62.36 64.90 67.49 68.53 73.15 73.44 75.03 74.40 74.21 74.29 73.86 73.64 74.09 73.54 73.23 73.44 73.63 75.14 75.81 77.17 76.55 76.44 76.54 76.57 77.21 76.74 75.81 73.42 73.49 75.41 72.80 71.77 70.79 72.36 71.06 75.80 76.29 77.10 75.55 75.33 75.01 75.10 73.98
65.00 65.43 65.53 69.89 71.47 71.65 72.17 73.31 73.71 73.76 72.97 72.93 73.28 73.56 72.88 73.46 73.20 73.04 73.16 73.67 73.45 76.07 73.77 75.42 75.34 74.58 73.81 72.36 71.98 72.47 72.37 71.04 70.27 72.36 73.71 75.98 76.63 77.15 76.17 76.11 75.66 74.91 74.86
66.83 65.38 65.78 72.24 71.29 70.85 70.98 71.20 73.13 72.91 72.98 72.72 73.49 73.59 72.63 72.88 72.17 72.13 72.59 72.88 73.23 73.03 72.59 72.93 72.68 73.08 72.23 72.62 72.03 71.51 71.06 70.78 72.46 72.42 73.68 76.27 76.40 76.96 76.62 76.65 76.29 75.55 75.29
71.35 70.50 71.67 72.25 71.91 71.90 72.09 71.52 72.88 71.98 72.91 73.23 72.35 73.37 73.41 72.44 71.82 72.10 72.21 72.79 72.37 72.82 72.84 72.37 72.47 72.08 72.30 72.80 73.19 73.28 72.38 72.20 72.86 72.43 72.89 77.15 76.60 76.40 76.60 76.43 76.86 76.43 76.13
73.43 73.12 72.83 72.75 72.40 72.29 71.36 71.36 71.54 72.04 72.42 72.84 72.62 73.23 73.69 72.91 72.83 72.62 71.81 71.90 72.15 73.94 72.61 72.65 71.62 71.66 72.36 72.39 72.30 72.50 72.07 72.30 72.33 72.30 73.45 74.82 76.96 76.35 76.41 77.31 77.24 77.26 76.83
73.75 74.21 73.83 73.11 73.26 72.82 72.30 71.49 71.08 72.01 72.61 72.07 71.50 71.96 73.24 72.84 72.38 72.35 71.94 71.49 73.09 72.50 72.38 72.01 72.32 72.57 71.54 72.09 71.35 71.73 72.62 72.43 72.41 72.23 73.29 72.99 75.26 76.87 76.73 76.54 76.65 77.09 77.05
73.78 73.27 73.09 74.22 72.78 71.22 71.20 71.80 72.35 71.99 72.36 72.52 72.38 72.03 71.55 72.89 72.80 71.61 71.42 70.54 71.84 72.61 72.67 71.22 71.51 70.95 70.33 70.90 70.28 71.10 71.60 72.23 72.96 72.23 72.89 73.03 73.52 73.46 76.21 76.62 76.56 76.68 76.97
74.03 73.28 72.37 72.33 71.95 71.53 71.87 72.39 72.46 71.93 71.31 71.33 71.63 71.77 72.28 72.59 73.31 72.15 71.06 71.68 73.20 71.62 71.56 71.13 70.68 70.99 69.83 69.25 69.90 70.45 71.48 72.12 71.51 73.03 72.17 72.56 72.48 73.08 72.57 74.95 76.05 76.07 75.41
73.94 72.97 72.05 72.15 71.91 72.18 71.83 71.94 71.83 72.42 72.27 72.90 72.44 72.07 72.48 72.38 72.89 72.95 71.08 70.85 70.86 69.26 69.00 70.20 69.36 70.44 70.40 69.87 71.67 70.68 70.26 70.03 70.25 71.64 70.42 71.59 73.08 73.11 72.97 72.53 72.05 72.93 74.68
73.23 72.17 70.64 71.51 71.74 71.91 71.24 70.54 70.65 70.22 71.10 71.91 71.91 72.72 72.28 71.76 72.56 72.05 70.56 70.18 70.09 68.80 67.94 68.84 69.88 69.27 68.64 68.98 66.76 66.92 68.46 70.59 68.40 70.13 69.77 70.38 70.68 72.90 73.07 71.66 70.99 71.02 73.38
72.35 72.18 71.01 72.07 70.93 70.06 70.84 71.41 71.20 70.81 70.88 71.02 72.35 72.27 72.51 72.39 71.90 72.23 71.52 70.40 71.62 70.33 69.24 69.15 69.14 67.99 68.87 69.12 65.46 65.10 63.40 64.19 67.81 69.58 70.05 70.17 69.98 72.19 71.98 71.34 72.70 72.94 71.85
71.63 72.50 71.68 72.18 71.43 71.12 72.67 72.19 70.56 70.19 70.16 70.09 69.99 71.27 72.22 72.43 71.92 71.92 72.08 71.01 71.16 71.27 69.69 69.29 68.46 67.90 65.86 67.30 68.28 65.22 61.42 59.69 63.29 67.52 66.78 66.06 69.24 70.88 71.38 70.92 71.71 71.88 72.05
71.33 73.02 72.21 72.41 71.80 71.85 73.15 69.85 69.10 67.99 67.05 69.27 69.72 71.19 71.08 72.06 71.40 71.13 71.56 71.49 70.68 70.18 68.87 68.89 69.78 68.49 67.66 65.88 66.98 69.16 67.50 66.23 61.14 59.99 64.96 64.73 69.14 69.26 68.51 68.40 70.02 71.14 71.02
72.12 72.33 72.60 72.18 71.46 72.75 72.84 70.86 69.72 68.69 68.62 69.19 69.90 70.17 70.65 70.31 70.70 71.33 70.08 70.72 70.97 70.91 69.89 70.08 69.34 68.47 67.79 66.53 66.37 67.43 67.86 67.52 66.20 62.37 60.04 62.56 67.34 66.73 66.67 67.16 67.59 69.67 70.79
72.04 72.37 72.38 71.82 71.62 73.44 73.01 71.23 70.70 68.78 68.28 68.53 68.33 68.49 69.73 70.13 70.01 70.17 69.31 68.91 70.13 70.56 69.73 69.16 69.43 69.18 68.98 68.87 68.78 68.02 66.39 64.90 64.20 64.29 63.45 63.83 64.30 64.82 65.44 66.04 65.91 69.39 69.87
MSLP
1011.29 1010.86 1010.88 1011.18 1011.67 1011.98 1012.23 1012.61 1013.07 1013.49 1013.81 1014.02 1014.14 1014.28 1014.32 1014.39 1014.58 1014.88 1015.06 1015.21 1015.34 1015.41 1015.58 1015.80 1016.01 1016.16 1016.20 1016.43 1016.33 1016.66 1016.85 1017.07 1017.16 1017.13 1017.28 1017.39 1017.67 1017.89 1018.10 1018.22 1018.47 1018.69 1018.94
1010.65 1011.07 1011.20 1011.29 1011.66 1012.06 1012.42 1012.66 1013.07 1013.51 1013.87 1014.12 1014.32 1014.48 1014.59 1014.71 1014.91 1015.13 1015.31 1015.39 1015.50 1015.53 1015.78 1016.01 1016.21 1016.19 1016.42 1016.50 1016.50 1016.83 1016.97 1017.16 1017.26 1017.30 1017.43 1017.73 1017.95 1018.06 1017.86 1018.30 1018.68 1018.92 1019.05
1011.07 1011.03 1011.56 1011.92 1012.02 1012.27 1012.50 1012.84 1013.22 1013.54 1013.86 1014.18 1014.44 1014.61 1014.70 1014.83 1015.08 1015.31 1015.45 1015.58 1015.64 1015.80 1015.98 1016.17 1016.24 1016.27 1016.55 1016.49 1016.59 1016.93 1017.17 1017.30 1017.42 1017.60 1017.77 1018.04 1018.17 1018.32 1018.45 1018.61 1018.81 1019.08 1019.26
1010.89 1011.37 1011.63 1012.23 1012.56 1012.74 1012.92 1013.10 1013.30 1013.59 1013.87 1014.19 1014.51 1014.66 1014.80 1014.88 1015.17 1015.44 1015.56 1015.67 1015.80 1015.94 1016.26 1016.31 1016.34 1016.44 1016.58 1016.59 1016.73 1016.96 1017.26 1017.44 1017.62 1017.73 1017.95 1018.13 1018.18 1018.59 1018.72 1018.86 1019.04 1019.22 1019.47
1011.29 1011.52 1011.64 1011.84 1012.45 1013.11 1013.40 1013.50 1013.58 1013.74 1013.95 1014.17 1014.42 1014.69 1014.95 1015.09 1015.25 1015.42 1015.63 1015.77 1015.94 1016.12 1016.36 1016.50 1016.52 1016.69 1016.69 1016.71 1016.79 1017.02 1017.36 1017.57 1017.59 1017.59 1017.83 1018.24 1018.32 1018.74 1018.92 1019.09 1019.22 1019.36 1019.51
1010.83 1011.35 1011.67 1012.05 1012.35 1012.71 1013.51 1013.88 1013.87 1014.03 1014.08 1014.28 1014.51 1014.80 1015.10 1015.26 1015.33 1015.43 1015.64 1015.89 1016.11 1016.29 1016.44 1016.61 1016.76 1016.84 1016.91 1016.91 1016.96 1017.09 1017.29 1017.59 1017.65 1017.74 1017.86 1018.27 1018.36 1018.67 1018.95 1019.08 1019.33 1019.54 1019.69
1011.49 1011.57 1012.07 1012.19 1012.35 1012.79 1013.10 1013.96 1014.16 1014.27 1014.32 1014.49 1014.60 1014.76 1015.24 1015.49 1015.50 1015.63 1015.74 1015.94 1016.18 1016.38 1016.50 1016.71 1016.88 1017.02 1017.09 1017.09 1017.08 1017.26 1017.40 1017.42 1017.43 1017.87 1017.95 1018.03 1018.38 1018.62 1018.91 1019.24 1019.48 1019.69 1019.81
1010.86 1012.39 1012.03 1012.54 1012.53 1012.76 1013.24 1013.41 1014.25 1014.39 1014.43 1014.59 1014.78 1014.83 1015.05 1015.50 1015.71 1015.79 1015.87 1016.04 1016.26 1016.40 1016.54 1016.78 1016.87 1017.08 1017.20 1017.20 1017.15 1017.33 1017.46 1017.47 1017.48 1017.58 1017.92 1018.00 1018.31 1018.55 1018.86 1019.28 1019.60 1019.79 1019.92
1010.48 1012.53 1012.34 1012.80 1012.58 1012.88 1013.11 1013.42 1013.98 1014.43 1014.51 1014.52 1014.75 1014.94 1015.11 1015.40 1015.69 1015.86 1015.98 1016.09 1016.31 1016.50 1016.67 1016.79 1016.90 1017.04 1017.19 1017.25 1017.16 1017.35 1017.41 1017.41 1017.56 1017.97 1018.12 1018.09 1018.19 1018.37 1018.72 1019.17 1019.57 1019.89 1020.07
1011.76 1010.98 1011.69 1012.37 1013.02 1012.85 1013.15 1013.38 1013.72 1014.22 1014.50 1014.59 1014.70 1014.94 1015.19 1015.34 1015.57 1015.79 1016.01 1016.18 1016.35 1016.57 1016.69 1016.75 1016.90 1017.07 1017.23 1017.26 1017.19 1017.32 1017.48 1017.42 1017.45 1017.57 1017.76 1018.12 1018.24 1018.40 1018.51 1018.97 1019.40 1019.78 1020.06
1012.49 1011.86 1012.23 1012.18 1012.39 1012.85 1013.12 1013.28 1013.60 1013.94 1014.35 1014.55 1014.65 1014.81 1015.06 1015.38 1015.57 1015.74 1015.91 1016.12 1016.27 1016.48 1016.65 1016.79 1016.90 1017.03 1017.13 1017.18 1017.17 1017.26 1017.43 1017.57 1017.33 1017.36 1017.60 1017.82 1018.09 1018.40 1018.65 1018.88 1019.34 1019.69 1019.99
1012.62 1012.40 1012.27 1012.40 1012.42 1012.63 1013.03 1013.24 1013.64 1013.81 1014.19 1014.43 1014.61 1014.78 1014.99 1015.25 1015.47 1015.58 1015.76 1015.91 1016.09 1016.31 1016.48 1016.69 1016.84 1016.97 1017.07 1017.22 1017.23 1017.18 1017.39 1017.52 1017.42 1017.41 1017.59 1017.95 1018.13 1018.37 1018.67 1018.83 1019.24 1019.55 1019.80
1011.60 1012.18 1012.25 1012.58 1012.42 1012.51 1012.90 1013.40 1013.75 1013.77 1014.02 1014.26 1014.37 1014.67 1014.85 1015.15 1015.26 1015.25 1015.67 1015.96 1016.07 1016.17 1016.36 1016.52 1016.66 1016.85 1017.01 1017.21 1017.26 1017.17 1017.06 1017.41 1017.29 1017.23 1017.37 1017.54 1017.85 1018.24 1018.47 1018.50 1018.87 1019.29 1019.60
1011.40 1011.72 1012.07 1012.17 1012.56 1012.65 1012.92 1013.39 1013.70 1013.78 1013.95 1014.17 1014.24 1014.45 1014.84 1015.19 1015.33 1015.41 1015.45 1015.63 1015.83 1015.98 1016.21 1016.42 1016.55 1016.67 1016.79 1016.83 1016.94 1017.04 1016.97 1017.02 1017.08 1017.12 1017.18 1017.60 1017.81 1018.03 1018.30 1018.14 1018.40 1018.72 1018.99
1010.88 1011.54 1011.85 1012.09 1012.42 1012.74 1013.00 1013.12 1013.29 1013.72 1014.05 1013.94 1013.95 1014.13 1014.41 1014.90 1015.36 1015.28 1015.23 1015.25 1015.36 1015.58 1015.83 1016.17 1016.36 1016.52 1016.66 1016.65 1016.66 1016.66 1016.72 1016.72 1016.63 1016.94 1017.16 1017.37 1017.62 1017.87 1018.08 1018.27 1018.03 1018.26 1018.66
1010.25 1010.90 1011.36 1011.73 1011.91 1012.27 1012.74 1012.93 1013.08 1013.33 1013.61 1013.67 1013.76 1013.87 1014.05 1014.39 1014.69 1014.83 1015.06 1015.02 1015.00 1015.07 1015.30 1015.47 1015.87 1016.09 1016.31 1016.22 1016.55 1016.66 1016.60 1016.47 1016.40 1016.58 1017.03 1016.80 1017.09 1017.36 1017.63 1017.61 1017.86 1017.98 1018.19
1009.76 1010.49 1011.05 1011.35 1011.64 1012.18 1012.58 1012.74 1012.84 1013.05 1013.17 1013.40 1013.63 1013.70 1013.76 1013.99 1014.13 1014.35 1014.73 1014.86 1014.61 1014.92 1014.96 1015.17 1015.39 1015.69 1016.09 1015.96 1016.23 1016.07 1016.14 1016.00 1015.85 1016.06 1016.41 1016.77 1016.80 1016.97 1017.01 1017.28 1017.53 1017.66 1017.94
1009.45 1010.14 1010.64 1011.16 1011.48 1011.80 1012.17 1012.46 1012.53 1012.74 1012.89 1013.08 1013.33 1013.42 1013.29 1013.52 1013.71 1013.90 1014.80 1015.58 1015.18 1015.14 1015.24 1015.26 1015.33 1015.70 1016.02 1016.21 1016.11 1015.94 1015.90 1015.62 1015.59 1015.82 1015.89 1016.26 1016.36 1016.49 1016.67 1016.89 1017.04 1017.27 1017.49
1009.02 1009.78 1010.47 1010.93 1011.49 1011.83 1012.12 1012.35 1012.48 1012.63 1012.89 1012.92 1012.98 1013.09 1013.09 1013.19 1013.37 1013.74 1014.64 1014.93 1014.90 1015.54 1015.32 1015.09 1015.14 1015.40 1015.99 1016.14 1016.12 1015.96 1015.82 1015.64 1015.67 1015.49 1015.57 1015.59 1016.01 1016.20 1016.25 1016.21 1016.73 1016.96 1017.00
1008.77 1009.46 1010.06 1010.79 1011.32 1011.76 1012.11 1012.23 1012.53 1012.67 1012.81 1012.70 1012.94 1012.93 1013.07 1013.12 1013.20 1013.57 1014.44 1014.79 1015.23 1016.07 1015.49 1014.98 1014.97 1015.33 1015.57 1015.91 1016.14 1016.09 1015.77 1015.56 1015.63 1015.74 1015.76 1015.74 1015.90 1015.83 1016.17 1016.52 1017.03 1017.20 1017.04
1008.69 1009.42 1010.04 1010.64 1011.18 1011.52 1012.03 1012.33 1012.51 1012.65 1012.65 1012.74 1012.66 1012.73 1012.94 1013.07 1013.03 1013.27 1013.90 1014.81 1014.86 1015.35 1015.00 1014.84 1014.98 1015.34 1015.72 1015.97 1016.43 1016.41 1015.96 1015.59 1015.64 1015.48 1015.32 1015.71 1015.93 1015.65 1015.61 1016.16 1017.04 1017.18 1017.00
1008.62 1009.31 1009.89 1010.42 1010.95 1011.30 1011.58 1011.89 1011.99 1012.11 1012.24 1012.28 1012.41 1012.48 1012.63 1012.80 1012.83 1012.92 1013.45 1013.92 1014.15 1014.39 1014.61 1014.73 1014.90 1015.40 1015.70 1015.86 1016.41 1016.70 1016.52 1016.07 1015.76 1016.06 1015.97 1016.09 1016.11 1015.60 1015.92 1016.32 1016.28 1016.30 1016.59
1008.25 1009.06 1009.56 1010.12 1010.61 1010.98 1011.16 1011.56 1011.79 1011.87 1012.16 1012.28 1012.40 1012.40 1012.43 1012.32 1012.39 1012.58 1012.84 1013.45 1013.72 1014.00 1014.25 1014.49 1014.80 1015.30 1015.76 1015.81 1015.89 1016.29 1016.60 1016.54 1016.46 1016.37 1016.39 1016.34 1016.45 1016.51 1016.29 1016.30 1016.22 1016.18 1015.99
1007.70 1008.61 1009.34 1009.91 1010.31 1010.62 1010.89 1011.22 1011.55 1011.90 1012.35 1012.20 1012.19 1012.05 1012.21 1012.02 1012.18 1012.39 1012.54 1012.99 1013.74 1014.02 1014.33 1014.54 1014.70 1015.00 1015.50 1015.70 1015.71 1015.62 1015.74 1016.09 1016.60 1017.02 1016.74 1016.66 1016.34 1016.53 1016.74 1016.40 1016.53 1016.23 1016.02
1007.27 1008.16 1008.91 1009.51 1009.96 1010.17 1010.42 1010.80 1011.26 1011.60 1011.84 1011.91 1012.02 1011.98 1012.10 1012.11 1012.12 1012.26 1012.58 1012.89 1013.46 1013.85 1014.20 1014.47 1014.63 1014.75 1015.01 1015.29 1015.39 1015.47 1015.63 1015.87 1016.14 1016.68 1016.99 1016.88 1016.77 1016.92 1017.08 1016.90 1016.67 1016.34 1015.93
1006.84 1007.62 1008.50 1009.24 1009.66 1009.85 1010.06 1010.41 1010.91 1011.22 1011.49 1011.92 1012.07 1012.17 1012.12 1012.15 1012.35 1012.62 1012.70 1012.95 1013.27 1013.74 1014.03 1014.26 1014.37 1014.46 1014.48 1014.53 1014.70 1014.82 1015.03 1015.38 1015.75 1016.17 1016.51 1016.59 1016.77 1017.13 1017.39 1017.27 1016.97 1016.41 1016.27
Wind_Speed
6 12 16 19 18 17 17 16 15 14 13 12 12 11 11 12 12 12 12 12 10 11 11 12 12 13 13 13 14 13 13 15 16 17 17 18 16 12 11 16 17 12 15
17 12 15 18 17 16 16 16 16 15 14 13 12 11 11 11 11 10 10 10 11 11 12 11 10 13 12 13 13 11 12 13 14 16 18 17 15 13 12 15 16 12 15
14 15 14 14 14 14 14 16 16 16 15 13 12 11 11 10 10 9 10 9 11 11 11 11 10 13 12 12 11 10 10 12 11 14 16 7 7 14 16 16 14 15 12
17 12 14 14 11 11 12 15 15 16 15 14 12 10 9 9 10 8 8 10 9 9 11 10 12 11 11 10 9 9 9 9 10 12 7 6 10 13 14 14 14 15 12
13 12 14 18 15 12 11 12 14 14 14 14 12 10 8 8 8 9 8 9 9 9 11 9 11 11 11 10 7 7 8 8 7 6 5 7 6 11 13 13 13 12 11
14 14 18 18 17 16 12 11 12 13 13 13 12 9 7 9 10 10 9 8 9 9 9 9 10 11 11 9 6 4 2 3 1 3 10 10 7 14 11 11 13 12 12
13 11 11 17 17 15 15 12 12 12 12 12 12 11 8 8 9 10 9 9 9 9 10 8 9 9 10 7 5 2 0 4 3 5 9 10 8 14 14 14 12 11 11
19 6 9 14 16 17 15 15 11 12 12 10 9 10 11 8 8 9 10 9 9 7 8 9 8 9 9 7 6 3 1 3 4 2 7 8 14 14 15 13 11 11 10
26 5 5 6 13 16 16 15 13 10 10 10 9 9 11 11 9 9 8 9 9 9 7 10 8 11 9 7 7 5 4 4 3 2 6 6 15 16 16 13 11 10 9
21 11 10 8 6 6 7 13 13 11 9 9 8 9 10 11 10 10 7 7 10 9 8 9 9 9 8 7 8 6 5 6 4 2 6 5 15 16 17 15 12 9 10
14 7 6 7 8 6 6 8 11 13 12 11 9 10 9 4 5 7 9 11 10 10 9 9 10 10 9 9 9 8 7 3 5 1 5 15 15 15 15 14 12 10 9
14 6 6 4 5 7 3 6 6 7 4 5 5 6 4 5 5 6 10 14 12 11 10 10 8 11 9 3 3 8 2 4 4 2 4 13 14 15 15 15 12 12 10
15 6 7 5 5 5 5 2 2 3 4 4 6 6 5 3 4 3 3 4 4 10 4 6 6 4 5 4 4 4 5 3 3 3 9 17 16 15 16 16 14 13 12
13 12 8 7 5 5 3 4 3 3 3 3 4 6 4 2 3 3 4 5 5 4 5 5 3 5 5 7 6 7 5 4 2 3 7 14 14 16 16 17 16 15 14
15 13 12 9 7 5 6 4 4 4 3 4 4 5 5 4 4 4 5 4 5 4 5 5 5 5 5 6 5 5 4 5 4 3 3 15 15 14 14 14 16 17 15
16 15 13 11 8 6 5 4 4 4 5 4 4 5 6 5 5 5 5 5 6 6 6 5 5 5 5 4 3 5 6 6 5 5 4 9 17 15 15 15 16 15 16
14 15 13 11 10 7 6 6 4 4 5 3 4 4 5 6 6 6 5 5 7 4 6 4 5 4 3 3 5 4 5 6 3 2 5 4 6 15 17 15 15 15 13
15 14 11 8 8 7 5 4 4 4 3 4 4 5 5 6 7 5 2 4 4 4 5 5 4 4 3 2 3 4 4 4 5 5 4 5 6 6 12 15 15 13 13
15 12 9 9 8 7 6 4 4 5 4 4 4 4 7 7 6 5 4 3 7 5 3 4 2 5 3 3 4 4 4 4 4 3 5 5 5 4 4 10 13 12 12
12 11 11 8 9 7 5 4 2 3 4 4 3 4 5 5 6 4 3 5 10 6 2 1 2 2 3 3 1 4 4 3 1 3 4 2 4 4 1 3 5 4 10
9 10 9 9 7 6 3 3 3 3 3 3 4 6 6 5 6 5 3 4 5 5 4 1 2 4 2 2 2 3 4 3 3 4 2 0 3 3 3 1 5 3 4
11 9 9 8 8 6 4 3 3 3 2 3 3 4 5 6 6 5 4 4 4 2 4 4 3 1 2 3 3 1 2 5 1 1 4 2 1 1 2 5 6 7 6
12 11 10 9 9 7 7 3 2 3 2 1 2 3 4 6 6 8 8 4 4 3 4 3 4 5 3 1 5 4 1 4 1 3 4 4 5 4 4 4 4 3 1
13 11 9 8 9 7 7 6 5 4 3 3 3 3 3 5 4 6 8 7 3 3 3 3 2 3 3 4 1 4 3 4 3 1 2 3 3 4 4 3 4 3 2
14 12 10 9 8 7 7 7 5 4 4 3 2 4 4 3 4 3 4 7 7 4 4 4 4 4 4 4 4 2 2 1 2 3 3 1 2 3 3 3 4 4 4
14 13 12 11 7 7 7 7 6 8 6 4 3 3 3 3 3 4 4 4 4 5 5 4 4 4 2 3 3 4 4 4 3 3 2 2 3 2 2 3 3 3 3
Wind_Direction
134 140 139 143 143 140 138 135 133 132 130 126 117 106 98 93 94 94 96 95 99 106 122 112 110 108 101 104 101 105 115 111 108 103 100 92 90 90 113 105 106 105 114
140 135 131 141 143 144 141 140 139 140 140 135 127 121 115 110 103 107 105 103 103 103 118 120 118 108 108 108 110 116 110 106 111 107 108 104 95 77 120 105 109 111 105
133 130 125 131 139 144 143 142 141 143 143 142 135 132 128 119 115 118 121 117 107 112 119 126 127 116 120 115 122 126 119 129 124 122 117 108 101 93 102 109 116 112 109
133 132 127 126 126 135 145 144 144 145 146 142 140 138 132 130 133 133 130 112 118 120 126 134 121 123 127 129 140 131 135 127 136 146 126 131 110 106 107 112 107 119 115
134 133 134 133 132 133 140 143 146 145 145 145 145 139 142 139 138 139 137 133 125 137 132 141 125 135 132 141 165 146 143 143 160 168 198 126 114 118 115 112 117 122 113
143 139 139 137 137 133 138 144 146 148 145 150 147 146 148 154 151 140 140 131 141 141 141 132 135 142 139 152 178 152 155 154 196 287 125 130 119 125 126 134 120 123 121
89 117 129 142 139 139 140 147 148 151 151 159 157 148 145 164 159 145 143 140 143 154 137 143 145 142 146 167 195 197 19 333 328 100 143 135 135 134 126 126 127 128 127
101 94 133 149 141 143 146 141 149 155 160 162 166 149 143 157 154 156 151 156 153 150 141 152 156 154 153 178 210 211 252 288 7 44 156 134 146 143 138 134 136 137 134
93 151 182 161 148 149 149 149 157 165 168 159 155 151 146 144 153 151 160 156 161 162 171 158 164 157 167 190 225 223 248 299 339 118 145 143 153 150 143 144 145 143 141
137 203 152 165 160 151 158 157 157 166 170 159 166 162 161 154 158 160 158 169 168 174 170 170 173 162 177 196 236 259 281 305 291 291 157 162 161 156 149 151 153 152 164
153 175 170 160 158 164 166 172 168 171 178 179 182 177 173 171 188 180 175 178 174 174 178 182 178 181 184 204 231 251 264 283 284 30 152 165 165 162 155 152 159 163 165
167 198 166 175 165 143 147 163 168 173 184 176 177 190 182 194 204 187 193 191 180 181 185 186 195 187 197 212 245 251 236 253 259 130 129 161 168 163 165 157 165 173 178
170 169 171 181 170 153 149 171 187 173 173 192 192 182 197 211 199 172 160 177 173 193 185 194 185 190 198 218 219 235 246 237 270 193 160 174 174 176 178 165 173 183 190
157 170 186 172 168 168 167 164 193 186 191 174 182 177 183 216 198 182 169 179 173 189 187 187 193 201 219 218 225 216 228 246 224 179 174 179 173 183 189 178 177 188 198
151 167 181 171 168 184 177 175 159 180 206 198 186 186 181 202 214 196 197 186 189 183 190 186 194 205 211 234 203 199 239 255 287 166 167 184 187 199 193 195 191 194 201
148 162 169 171 165 179 190 188 175 171 192 192 196 197 199 196 200 200 205 204 206 190 193 178 191 195 209 216 209 217 230 240 228 153 185 191 195 194 204 200 204 201 207
150 154 164 164 161 165 187 196 181 180 187 190 165 150 197 200 216 206 210 207 208 181 180 172 186 181 191 222 229 230 231 242 261 226 166 195 196 205 207 212 211 209 218
148 158 154 159 147 156 173 183 175 165 171 173 171 204 208 219 213 213 211 47 304 184 191 174 165 159 203 207 238 259 232 223 236 233 208 189 202 202 214 213 213 207 213
150 151 157 144 150 158 176 172 188 180 190 214 206 195 204 201 209 209 145 156 36 298 231 182 147 147 189 235 236 245 235 216 231 260 231 222 198 208 210 218 215 210 178
131 139 136 143 150 154 169 164 184 167 190 186 180 157 197 220 218 208 162 151 156 227 279 203 129 208 186 208 334 317 270 230 205 220 255 212 80 139 97 71 35 239 200
136 135 145 143 160 146 159 169 173 202 207 218 206 188 202 215 222 209 198 187 169 185 191 177 151 212 289 97 56 309 300 237 263 265 268 163 198 208 179 254 208 219 226
151 148 153 150 157 164 170 196 185 165 183 179 175 194 203 214 212 189 219 216 226 185 181 169 155 165 257 147 170 137 329 320 338 4 25 33 243 241 206 220 211 204 205
149 159 165 158 166 187 186 163 133 77 71 81 223 189 214 206 214 193 188 216 217 188 205 172 173 180 212 285 206 154 130 230 356 2 31 42 22 38 13 11 24 39 102
160 157 155 157 173 195 195 165 158 161 177 214 204 182 194 189 177 190 198 177 200 164 205 219 179 189 157 229 305 213 210 148 171 321 340 348 60 50 51 334 353 2 13
159 161 162 163 182 198 186 166 169 173 179 190 174 170 155 152 155 165 173 172 182 184 195 213 215 215 205 209 198 218 217 194 149 138 234 333 50 54 7 23 337 339 37
160 155 162 170 188 202 181 180 166 169 167 155 167 177 197 171 166 163 158 154 171 176 193 211 227 231 196 210 229 187 178 170 182 166 188 175 170 97 41 354 349 347 45